KB0BS-13 Weather Reports


Display with metric or nautical units.
time (UTC)temp
F
wind
direction
speed
MPH
gust
MPH
rain 1hr
in
rain 24hr
in
rain mn
in
humidity
%
barometer
mb
20260510213912 45 323 6.0 9.0 0.00 0.00 0.00 58 1020.0
20260510213409 45 336 8.0 14.0 0.00 0.00 0.00 57 1020.0
20260510212905 46 317 7.0 14.0 0.00 0.00 0.00 56 1019.9
20260510212402 45 322 9.0 11.0 0.00 0.00 0.00 57 1019.9
20260510211859 46 307 13.0 17.0 0.00 0.00 0.00 57 1020.1
20260510211356 45 311 5.0 10.0 0.00 0.00 0.00 60 1019.8
20260510210851 45 4 9.0 11.0 0.00 0.00 0.00 59 1019.8
20260510210346 45 312 6.0 13.0 0.00 0.00 0.00 60 1019.8
20260510205845 45 270 3.0 15.0 0.00 0.00 0.00 57 1019.7
20260510205340 46 318 11.0 14.0 0.00 0.00 0.00 55 1019.4
20260510204837 46 316 6.0 10.0 0.00 0.00 0.00 57 1019.5
20260510204333 46 317 5.0 8.0 0.00 0.00 0.00 56 1019.4
20260510203830 46 308 10.0 19.0 0.00 0.00 0.00 53 1019.5
20260510203328 46 346 6.0 17.0 0.00 0.00 0.00 56 1019.4
20260510202828 46 306 12.0 18.0 0.00 0.00 0.00 56 1019.3
20260510202323 46 308 10.0 13.0 0.00 0.00 0.00 56 1019.1
20260510201820 46 335 8.0 15.0 0.00 0.00 0.00 58 1019.2
20260510201317 46 310 6.0 10.0 0.00 0.00 0.00 59 1019.1
20260510200814 45 297 9.0 13.0 0.00 0.00 0.00 58 1019.2
20260510200312 46 314 6.0 14.0 0.00 0.00 0.00 58 1019.1
20260510195808 47 5 9.0 14.0 0.00 0.00 0.00 56 1019.2
20260510195306 46 340 6.0 10.0 0.00 0.00 0.00 56 1019.0
20260510194804 46 309 13.0 15.0 0.00 0.00 0.00 54 1019.0
20260510194301 46 324 11.0 13.0 0.00 0.00 0.00 57 1019.0
20260510193752 46 313 7.0 13.0 0.00 0.00 0.00 57 1018.9
20260510193252 46 269 4.0 13.0 0.00 0.00 0.00 55 1019.0
20260510192748 47 297 10.0 15.0 0.00 0.00 0.00 54 1018.9
20260510192244 46 303 11.0 15.0 0.00 0.00 0.00 54 1018.8
20260510191740 47 345 7.0 9.0 0.00 0.00 0.00 57 1018.6
20260510191236 46 349 9.0 17.0 0.00 0.00 0.00 55 1018.6
20260510190734 46 297 16.0 19.0 0.00 0.00 0.00 57 1018.5
20260510190230 46 273 5.0 11.0 0.00 0.00 0.00 57 1018.5
20260510185727 46 333 6.0 13.0 0.00 0.00 0.00 57 1018.4
20260510185225 46 312 13.0 18.0 0.00 0.00 0.00 56 1018.4
20260510184721 46 303 12.0 16.0 0.00 0.00 0.00 55 1018.2
20260510184218 47 311 13.0 15.0 0.00 0.00 0.00 55 1018.3
20260510183714 46 286 13.0 15.0 0.00 0.00 0.00 56 1017.9
20260510183208 46 292 11.0 17.0 0.00 0.00 0.00 57 1017.8
20260510182705 46 351 10.0 13.0 0.00 0.00 0.00 57 1017.8
20260510182200 47 350 9.0 10.0 0.00 0.00 0.00 58 1017.8
20260510181658 47 310 9.0 15.0 0.00 0.00 0.00 59 1017.5
20260510181154 46 299 15.0 18.0 0.00 0.00 0.00 56 1017.8
20260510180650 46 297 13.0 18.0 0.00 0.00 0.00 57 1017.7
20260510180148 46 304 14.0 16.0 0.00 0.00 0.00 60 1017.7
20260510175644 46 18 9.0 11.0 0.00 0.00 0.00 60 1017.6
20260510175140 46 324 8.0 10.0 0.00 0.00 0.00 61 1017.5
20260510174638 46 341 9.0 13.0 0.00 0.00 0.00 59 1017.3
20260510174135 46 319 8.0 14.0 0.00 0.00 0.00 57 1017.5
20260510173631 46 337 8.0 14.0 0.00 0.00 0.00 57 1017.4
20260510173127 46 348 7.0 10.0 0.00 0.00 0.00 59 1017.4
20260510172622 46 306 7.0 10.0 0.00 0.00 0.00 60 1017.3
20260510172119 46 352 9.0 11.0 0.00 0.00 0.00 59 1017.2
20260510171616 46 305 14.0 17.0 0.00 0.00 0.00 56 1017.4
20260510171114 47 316 8.0 13.0 0.00 0.00 0.00 60 1017.3
20260510170610 47 319 6.0 11.0 0.00 0.00 0.00 58 1017.3
20260510170106 46 341 7.0 11.0 0.00 0.00 0.00 63 1017.4
20260510165602 46 311 6.0 14.0 0.00 0.00 0.00 61 1017.3
20260510165058 47 319 14.0 17.0 0.00 0.00 0.00 59 1017.3
20260510164556 46 345 8.0 13.0 0.00 0.00 0.00 59 1017.2
20260510164052 45 341 8.0 14.0 0.00 0.00 0.00 62 1017.1
20260510163547 44 16 6.0 9.0 0.00 0.00 0.00 66 1017.1
20260510163044 44 14 11.0 14.0 0.00 0.00 0.00 67 1017.2
20260510162539 44 350 9.0 10.0 0.00 0.00 0.00 67 1017.0
20260510162036 44 37 6.0 9.0 0.00 0.00 0.00 67 1017.0
20260510161532 46 345 11.0 16.0 0.00 0.00 0.00 64 1016.8
20260510161029 46 319 11.0 14.0 0.00 0.00 0.00 60 1016.8
20260510160526 48 317 12.0 15.0 0.00 0.00 0.00 57 1016.6
20260510160025 46 353 7.0 9.0 0.00 0.00 0.00 60 1016.6
20260510155522 45 285 3.0 8.0 0.00 0.00 0.00 62 1016.6
20260510155018 46 319 9.0 13.0 0.00 0.00 0.00 60 1016.3
20260510154514 48 282 12.0 19.0 0.00 0.00 0.00 55 1016.1
20260510154015 47 288 9.0 14.0 0.00 0.00 0.00 58 1016.3
20260510153510 46 272 13.0 15.0 0.00 0.00 0.00 60 1016.2
20260510153007 46 272 13.0 15.0 0.00 0.00 0.00 60 1016.2
20260510152504 45 289 11.0 13.0 0.00 0.00 0.00 62 1016.2
20260510152000 45 290 10.0 16.0 0.00 0.00 0.00 62 1016.3
20260510151458 46 282 11.0 16.0 0.00 0.00 0.00 63 1016.5
20260510150954 46 291 13.0 16.0 0.00 0.00 0.00 61 1016.2
20260510150450 45 74 11.0 15.0 0.00 0.00 0.00 61 1016.1
20260510145946 45 280 11.0 13.0 0.00 0.00 0.00 62 1016.0
20260510145442 45 280 9.0 13.0 0.00 0.00 0.00 64 1016.1
20260510144939 45 257 11.0 13.0 0.00 0.00 0.00 65 1016.0
20260510144435 46 275 11.0 15.0 0.00 0.00 0.00 64 1016.2
20260510143931 45 285 9.0 15.0 0.00 0.00 0.00 66 1016.1
20260510143427 45 300 10.0 13.0 0.00 0.00 0.00 63 1016.2
20260510142924 44 277 9.0 13.0 0.00 0.00 0.00 68 1016.2
20260510142421 44 286 7.0 10.0 0.00 0.00 0.00 68 1016.1
20260510141917 44 289 12.0 14.0 0.00 0.00 0.00 68 1016.0
20260510141414 44 268 8.0 9.0 0.00 0.00 0.00 68 1016.0
20260510140912 43 280 11.0 13.0 0.00 0.00 0.00 68 1016.1
20260510140408 43 299 9.0 11.0 0.00 0.00 0.00 69 1016.1
20260510135907 43 280 11.0 13.0 0.00 0.00 0.00 69 1016.1
20260510135403 43 295 12.0 15.0 0.00 0.00 0.00 68 1016.1
20260510134900 42 269 8.0 13.0 0.00 0.00 0.00 70 1016.3
20260510134357 42 275 9.0 14.0 0.00 0.00 0.00 70 1016.1
20260510133853 43 300 10.0 11.0 0.00 0.00 0.00 68 1015.9
20260510133350 43 281 11.0 14.0 0.00 0.00 0.00 70 1016.0
20260510132845 43 299 11.0 14.0 0.00 0.00 0.00 70 1016.1
20260510132343 42 267 10.0 14.0 0.00 0.00 0.00 71 1016.0
20260510131840 42 312 11.0 18.0 0.00 0.00 0.00 69 1015.8
20260510131338 42 272 10.0 15.0 0.00 0.00 0.00 70 1016.0
20260510130834 41 269 10.0 14.0 0.00 0.00 0.00 71 1015.9
20260510130331 41 315 10.0 14.0 0.00 0.00 0.00 71 1015.7
20260510125827 41 260 9.0 11.0 0.00 0.00 0.00 72 1015.9
20260510125324 41 285 10.0 11.0 0.00 0.00 0.00 75 1015.8
20260510124821 40 303 8.0 10.0 0.00 0.00 0.00 75 1015.8
20260510124318 40 310 7.0 10.0 0.00 0.00 0.00 77 1015.5
20260510123813 39 230 7.0 10.0 0.00 0.00 0.00 79 1015.6
20260510123309 39 275 9.0 11.0 0.00 0.00 0.00 79 1015.5
20260510122805 38 276 8.0 10.0 0.00 0.00 0.00 81 1015.4
20260510122301 38 300 6.0 9.0 0.00 0.00 0.00 83 1015.4
20260510121758 38 276 11.0 11.0 0.00 0.00 0.00 82 1015.1
20260510121256 37 257 7.0 9.0 0.00 0.00 0.00 83 1015.5
20260510120753 37 268 9.0 13.0 0.00 0.00 0.00 83 1015.2
20260510120249 37 275 8.0 9.0 0.00 0.00 0.00 85 1015.2
20260510115745 36 277 6.0 9.0 0.00 0.00 0.00 86 1014.9
20260510115243 36 275 7.0 8.0 0.00 0.00 0.00 87 1015.0
20260510114738 35 282 8.0 9.0 0.00 0.00 0.00 86 1014.8
20260510114236 35 282 10.0 11.0 0.00 0.00 0.00 87 1014.9
20260510113731 35 322 6.0 10.0 0.00 0.00 0.00 88 1014.8
20260510113228 35 303 6.0 8.0 0.00 0.00 0.00 88 1014.9
20260510112724 34 294 6.0 7.0 0.00 0.00 0.00 89 1014.7
20260510112221 34 262 4.0 6.0 0.00 0.00 0.00 89 1014.8
20260510111717 33 244 5.0 7.0 0.00 0.00 0.00 90 1014.6
20260510111215 33 257 6.0 10.0 0.00 0.00 0.00 91 1014.6
20260510110714 33 266 4.0 7.0 0.00 0.00 0.00 91 1014.4
20260510110212 32 262 4.0 6.0 0.00 0.00 0.00 92 1014.4
20260510105712 32 250 5.0 7.0 0.00 0.00 0.00 92 1014.1
20260510105206 32 270 6.0 8.0 0.00 0.00 0.00 93 1014.1
20260510104703 32 251 5.0 7.0 0.00 0.00 0.00 93 1014.1
20260510104200 31 259 5.0 7.0 0.00 0.00 0.00 93 1014.0
20260510103657 31 256 5.0 7.0 0.00 0.00 0.00 94 1013.8
20260510103154 31 265 4.0 6.0 0.00 0.00 0.00 94 1013.6
20260510102654 31 259 6.0 7.0 0.00 0.00 0.00 94 1013.6
20260510102150 31 264 6.0 8.0 0.00 0.00 0.00 94 1013.6
20260510101648 31 209 6.0 8.0 0.00 0.00 0.00 94 1013.5
20260510101146 31 248 6.0 8.0 0.00 0.00 0.00 94 1013.3
20260510100641 32 254 5.0 8.0 0.00 0.00 0.00 93 1013.4
20260510100139 32 268 7.0 8.0 0.00 0.00 0.00 93 1013.2
20260510095635 32 261 6.0 8.0 0.00 0.00 0.00 93 1013.1
20260510095130 31 259 5.0 7.0 0.00 0.00 0.00 93 1013.1
20260510094629 32 249 6.0 7.0 0.00 0.00 0.00 93 1012.9
20260510094125 32 248 7.0 8.0 0.00 0.00 0.00 94 1012.8
20260510093621 31 256 6.0 7.0 0.00 0.00 0.00 94 1012.9
20260510093118 32 255 5.0 7.0 0.00 0.00 0.00 93 1013.0
20260510092615 32 263 5.0 8.0 0.00 0.00 0.00 92 1012.9
20260510092115 32 255 4.0 6.0 0.00 0.00 0.00 92 1012.8
20260510091611 32 261 4.0 4.0 0.00 0.00 0.00 92 1012.8
20260510091108 32 260 5.0 6.0 0.00 0.00 0.00 92 1012.7
20260510090605 32 260 4.0 6.0 0.00 0.00 0.00 92 1012.8
20260510090100 32 261 5.0 6.0 0.00 0.00 0.00 91 1012.7
20260510085555 32 265 5.0 7.0 0.00 0.00 0.00 91 1012.5
20260510085051 33 265 6.0 8.0 0.00 0.00 0.00 90 1012.5
20260510084548 33 252 6.0 9.0 0.00 0.00 0.00 89 1012.6
20260510084046 33 256 6.0 7.0 0.00 0.00 0.00 90 1012.4
20260510083542 33 261 5.0 7.0 0.00 0.00 0.00 89 1012.3
20260510083038 33 263 6.0 7.0 0.00 0.00 0.00 89 1012.2
20260510082535 33 253 5.0 6.0 0.00 0.00 0.00 90 1012.1
20260510082030 33 257 4.0 6.0 0.00 0.00 0.00 89 1012.1
20260510081525 34 254 6.0 8.0 0.00 0.00 0.00 88 1012.0
20260510081021 34 269 5.0 10.0 0.00 0.00 0.00 87 1011.9
20260510080520 34 266 6.0 7.0 0.00 0.00 0.00 88 1012.1
20260510080017 34 274 4.0 8.0 0.00 0.00 0.00 87 1012.0
20260510075515 34 275 5.0 7.0 0.00 0.00 0.00 87 1011.9
20260510075012 34 275 6.0 7.0 0.00 0.00 0.00 86 1011.8
20260510074509 35 287 9.0 10.0 0.00 0.00 0.00 85 1011.5
20260510074004 35 259 6.0 9.0 0.00 0.00 0.00 85 1011.7
20260510073501 35 257 5.0 8.0 0.00 0.00 0.00 85 1011.7
20260510072957 35 276 6.0 8.0 0.00 0.00 0.00 85 1011.6
20260510072454 35 257 7.0 9.0 0.00 0.00 0.00 84 1011.5
20260510071949 35 271 6.0 9.0 0.00 0.00 0.00 83 1011.4
20260510071446 35 264 8.0 9.0 0.00 0.00 0.00 83 1011.3
20260510070944 34 261 6.0 9.0 0.00 0.00 0.00 83 1011.4
20260510070442 34 267 5.0 7.0 0.00 0.00 0.00 83 1011.0
20260510065937 35 253 4.0 7.0 0.00 0.00 0.00 82 1010.9
20260510065434 35 259 8.0 11.0 0.00 0.00 0.00 81 1011.4
20260510064930 35 262 7.0 8.0 0.00 0.00 0.00 82 1011.0
20260510064428 35 271 5.0 8.0 0.00 0.00 0.00 82 1011.1
20260510063924 34 272 5.0 6.0 0.00 0.00 0.00 82 1011.1
20260510063420 35 277 5.0 7.0 0.00 0.00 0.00 81 1010.9
20260510062918 35 271 5.0 8.0 0.00 0.00 0.00 80 1010.9
20260510062413 35 276 6.0 8.0 0.00 0.00 0.00 80 1011.1
20260510061909 35 256 5.0 8.0 0.00 0.00 0.00 79 1011.0
20260510061406 35 262 4.0 7.0 0.00 0.00 0.00 79 1011.1
20260510060902 35 261 4.0 8.0 0.00 0.00 0.00 80 1011.0
20260510060359 34 263 4.0 6.0 0.00 0.00 0.00 81 1011.1
20260510055855 34 257 4.0 4.0 0.00 0.00 0.00 82 1010.9
20260510055355 34 244 4.0 4.0 0.00 0.00 0.00 81 1011.1
20260510054854 34 251 3.0 4.0 0.00 0.00 0.00 80 1010.9
20260510054350 35 264 5.0 6.0 0.00 0.00 0.00 79 1010.9
20260510053845 35 250 5.0 6.0 0.00 0.00 0.00 79 1010.9
20260510053340 35 244 6.0 8.0 0.00 0.00 0.00 78 1010.8
20260510052837 36 250 7.0 9.0 0.00 0.00 0.00 78 1010.8
20260510052333 36 269 6.0 9.0 0.00 0.00 0.00 77 1010.8
20260510051829 35 271 6.0 8.0 0.00 0.00 0.00 78 1010.6
20260510051326 35 254 7.0 8.0 0.00 0.00 0.00 78 1010.5
20260510050823 35 244 6.0 8.0 0.00 0.00 0.00 78 1010.6
20260510050320 36 251 6.0 10.0 0.00 0.00 0.00 77 1010.6
20260510045817 36 237 7.0 8.0 0.00 0.00 0.00 77 1010.6
20260510045313 36 243 8.0 9.0 0.00 0.00 0.00 76 1010.6
20260510044811 36 250 7.0 11.0 0.00 0.00 0.00 76 1010.6
20260510044307 35 247 6.0 9.0 0.00 0.00 0.00 77 1010.5
20260510043804 35 247 5.0 8.0 0.00 0.00 0.00 78 1010.4
20260510043255 35 255 7.0 10.0 0.00 0.00 0.00 77 1010.4
20260510042753 36 250 6.0 9.0 0.00 0.00 0.00 76 1010.3
20260510042247 36 248 5.0 7.0 0.00 0.00 0.00 77 1010.3
20260510041744 36 258 8.0 9.0 0.00 0.00 0.00 76 1010.3
20260510041241 36 249 7.0 8.0 0.00 0.00 0.00 76 1010.3
20260510040739 36 254 8.0 9.0 0.00 0.00 0.00 76 1010.1
20260510040236 37 255 8.0 9.0 0.00 0.01 0.01 75 1010.3
20260510035730 36 274 6.0 10.0 0.00 0.01 0.01 75 1010.2
20260510035227 36 264 7.0 8.0 0.00 0.01 0.01 75 1010.1
20260510034722 36 256 7.0 10.0 0.00 0.01 0.01 74 1009.9
20260510034221 36 239 8.0 9.0 0.00 0.01 0.01 74 1010.1
20260510033716 36 259 6.0 9.0 0.00 0.01 0.01 75 1010.0
20260510033215 37 259 6.0 9.0 0.00 0.01 0.01 73 1009.9
20260510032711 37 264 6.0 9.0 0.00 0.01 0.01 73 1010.0
20260510032207 36 259 5.0 7.0 0.00 0.01 0.01 74 1009.9
20260510031701 37 257 4.0 7.0 0.00 0.01 0.01 74 1009.9
20260510031158 37 267 5.0 6.0 0.00 0.01 0.01 74 1009.8
20260510030652 37 259 5.0 8.0 0.00 0.01 0.01 74 1009.9
20260510030151 37 248 5.0 7.0 0.00 0.01 0.01 74 1009.9
20260510025648 38 262 4.0 7.0 0.00 0.01 0.01 72 1009.7
20260510025145 38 249 5.0 8.0 0.00 0.01 0.01 72 1009.9
20260510024642 39 277 5.0 9.0 0.00 0.01 0.01 70 1009.8
20260510024138 39 270 8.0 13.0 0.00 0.01 0.01 70 1009.7
20260510023633 39 286 9.0 11.0 0.00 0.01 0.01 71 1009.7
20260510023126 39 264 8.0 10.0 0.00 0.01 0.01 71 1009.7
20260510022626 39 255 7.0 10.0 0.00 0.01 0.01 71 1009.7
20260510022121 39 262 6.0 9.0 0.00 0.01 0.01 71 1009.6
20260510021616 40 242 6.0 14.0 0.00 0.01 0.01 69 1009.5
20260510021114 40 264 7.0 13.0 0.00 0.01 0.01 70 1009.6
20260510020608 40 269 9.0 13.0 0.00 0.01 0.01 70 1009.3
20260510020104 40 272 9.0 11.0 0.00 0.01 0.01 70 1009.4
20260510015600 40 281 9.0 13.0 0.00 0.01 0.01 70 1009.2
20260510015056 40 294 6.0 10.0 0.00 0.01 0.01 72 1009.2
20260510014552 41 295 9.0 13.0 0.00 0.01 0.01 71 1009.0
20260510014050 40 263 6.0 9.0 0.00 0.01 0.01 72 1009.1
20260510013550 40 275 7.0 9.0 0.00 0.01 0.01 71 1009.0
20260510013046 41 259 5.0 7.0 0.00 0.01 0.01 71 1008.8
20260510012540 41 259 5.0 7.0 0.00 0.01 0.01 71 1008.8
20260510012037 41 274 8.0 14.0 0.00 0.01 0.01 70 1008.7
20260510011536 42 274 10.0 15.0 0.00 0.01 0.01 69 1008.6
20260510011032 42 270 12.0 19.0 0.00 0.01 0.01 68 1008.5
20260510010529 42 288 11.0 17.0 0.00 0.01 0.01 68 1008.3
20260510010026 42 288 13.0 19.0 0.00 0.01 0.01 67 1008.4
20260510005522 42 282 12.0 16.0 0.00 0.01 0.01 68 1008.1
20260510005020 42 276 9.0 17.0 0.00 0.01 0.01 68 1008.0
20260510004517 43 291 12.0 16.0 0.00 0.01 0.01 68 1007.8
20260510004015 43 290 14.0 19.0 0.00 0.01 0.01 68 1007.9
20260510003511 43 286 14.0 18.0 0.00 0.01 0.01 67 1007.6
20260510003007 43 293 14.0 22.0 0.00 0.01 0.01 68 1007.5
20260510002503 43 294 17.0 22.0 0.00 0.01 0.01 68 1007.5
20260510002000 44 280 14.0 19.0 0.00 0.01 0.01 68 1007.4
20260510001457 44 301 12.0 18.0 0.00 0.01 0.01 69 1007.2
20260510000955 44 319 14.0 16.0 0.00 0.01 0.01 68 1007.2
20260510000450 44 114 11.0 16.0 0.00 0.01 0.01 69 1007.0
20260509235947 45 159 13.0 19.0 0.00 0.01 0.01 67 1007.1
20260509235444 45 305 17.0 19.0 0.00 0.01 0.01 66 1007.0
20260509234940 45 304 18.0 24.0 0.00 0.01 0.01 65 1006.8
20260509234437 45 293 16.0 19.0 0.00 0.01 0.01 66 1006.9
20260509233935 46 294 19.0 23.0 0.00 0.01 0.01 65 1006.8
20260509233432 46 281 18.0 23.0 0.00 0.01 0.01 64 1006.8
20260509232928 46 306 21.0 27.0 0.00 0.01 0.01 65 1006.6
20260509232426 46 311 16.0 21.0 0.00 0.01 0.01 66 1006.6
20260509231921 46 294 13.0 19.0 0.00 0.01 0.01 66 1006.2
20260509231418 46 296 17.0 25.0 0.00 0.01 0.01 66 1006.4
20260509230917 46 318 21.0 25.0 0.00 0.01 0.01 63 1006.3
20260509230413 46 299 23.0 26.0 0.00 0.01 0.01 65 1006.0
20260509225909 47 317 15.0 23.0 0.00 0.01 0.01 65 1005.8
20260509225406 47 296 19.0 24.0 0.00 0.01 0.01 67 1005.8
20260509224901 47 317 17.0 29.0 0.00 0.01 0.01 66 1005.9
20260509224357 47 298 19.0 30.0 0.00 0.01 0.01 66 1005.7
20260509223855 46 305 18.0 29.0 0.00 0.01 0.01 67 1005.7
20260509223351 46 294 15.0 25.0 0.00 0.01 0.01 71 1005.5
20260509222849 47 11 11.0 21.0 0.00 0.01 0.01 70 1005.3
20260509222348 47 288 18.0 21.0 0.00 0.01 0.01 71 1005.2
20260509221844 47 285 19.0 29.0 0.00 0.01 0.01 70 1005.2
20260509221342 48 297 18.0 27.0 0.00 0.01 0.01 69 1004.9
20260509220843 49 302 21.0 26.0 0.00 0.01 0.01 67 1004.8
20260509220339 49 295 21.0 27.0 0.00 0.01 0.01 66 1004.8
20260509215835 49 304 19.0 26.0 0.00 0.01 0.01 66 1004.5
20260509215332 49 301 17.0 24.0 0.00 0.01 0.01 67 1004.3
20260509214829 49 327 19.0 25.0 0.00 0.01 0.01 69 1004.4
20260509214326 50 312 23.0 27.0 0.00 0.01 0.01 68 1004.2